Showing default

QIANFAN-37, 62238

Orbit data source: Space-Track

QIANFAN-37, 62238 is a Chinese payload satellite in LEO that was launched on Thu, 05 Dec 2024 UTC via a CHANG ZHENG 6A launch vehicle from the Taiyaun Space Center, China (TSC). Payload-class satellites include a variety of spacecraft equipped with specific instruments for various scientific and technological missions. These include communications satellites like Starlink; space stations such as the ISS; scientific satellites like the Hubble; Earth observation satellites from companies like Planet Labs, Umbra, and HawkEye 360; GPS; miniature CubeSats for education and research; and military/defense satellites.

Loading next visibility...
Identifier
62238, 2024-232B
Orbit
LEO
Country
Flag of CNCN / PRC
Related business
Manufacturer
SECM
Mission
Operational Commercial Communications
Bus & Motor
QIANFAN, Unknown motor
Mass
267 kg wet, ~267 kg dry
Launch date (UTC)
2024-12-05 (2 years ago)
Launch vehicle
CHANG ZHENG 6A
Launch site
Taiyaun Space Center, China (TSC)
Object type
Payload
Rocket body
Debris
Shape & HBR
Box + 1 Pan, 5.0 m
Radar Cross Section
13.200 m², Large (>1 m²)

Expand to show TLE details & history
Last TLE update: 13 hours ago

TLE from 13 hours ago
0 QIANFAN-37
1 62238U 24232B   26171.37237044  .00000054  00000-0  64613-4 0  9994
2 62238  89.0070  22.2653 0001413  84.7993 275.3319 13.51009254124777
Epoch: 2026-06-20T08:56Z
TLE epoch observation values (Epoch: 2026-06-20T08:56:12.806Z)
Latitude
-0.00003°
Longitude
-20.376°
Altitude
1,071.403 km
Speed
7.316 km/s
True Right ascension
01h 29m 03s
True Declination
0° 00' 00"
Sunlit
Object was in daylight at epoch
Visualization orbit readout
Latitude
Unknown
Longitude
Unknown
Altitude
Unknown
Speed
Unknown
Apparent Right ascension
Unknown
Apparent Declination
Unknown
Sunlit
N/A
Visualization observer readout
Local Sidereal Time
08:42:56
Azimuth
Unknown
Elevation
Unknown
Doppler factor
Unknown
Orbital elements
Apogee altitude
1,066.65 km
Perigee altitude
1,064.547 km
Semi-major axis
7,443.736 km
Eccentricity
0.00014
Inclination
89.007°
RAAN
22.2653°
Arg. of periapsis
84.7993°
True anomaly
275.31578°
Mean anomaly
275.3319°
Eccentric anomaly
275.32384°
Mean motion
3.37953 °/min
Orbital period
106.52 mins
BSTAR
0.000064613
Loading maneuver chart data...
Computing Atmospheric mass density...
Loading historical data...
Loading historical data...
Loading historical data...
Loading historical data...
Loading historical data...
Loading historical data...
Loading historical data...

Documentation

Showing up to 5 results
|